TimeEDT,TemperatureF,Dew PointF,Humidity,Sea Level PressureIn,VisibilityMPH,Wind Direction,Wind SpeedMPH,Gust SpeedMPH,PrecipitationIn,Events,Conditions,WindDirDegrees,DateUTC
12:12 AM,59.2,59.2,100,30.11,10.0,Calm,Calm,-,N/A,,Clear,0,2013-09-27 04:12:00
12:32 AM,58.1,58.1,100,30.11,10.0,Calm,Calm,-,N/A,,Clear,0,2013-09-27 04:32:00
12:53 AM,57.6,57.6,100,30.12,10.0,Calm,Calm,-,N/A,,Clear,0,2013-09-27 04:53:00
1:13 AM,56.7,56.7,100,30.12,10.0,Calm,Calm,-,N/A,,Clear,0,2013-09-27 05:13:00
1:33 AM,56.5,56.5,100,30.12,10.0,Calm,Calm,-,N/A,,Scattered Clouds,0,2013-09-27 05:33:00
1:53 AM,56.8,56.8,100,30.13,10.0,Calm,Calm,-,N/A,,Scattered Clouds,0,2013-09-27 05:53:00
2:13 AM,56.8,56.8,100,30.13,10.0,Calm,Calm,-,N/A,,Mostly Cloudy,0,2013-09-27 06:13:00
2:33 AM,56.5,56.5,100,30.13,10.0,Calm,Calm,-,N/A,,Scattered Clouds,0,2013-09-27 06:33:00
2:53 AM,56.7,56.7,100,30.13,10.0,Calm,Calm,-,N/A,,Mostly Cloudy,0,2013-09-27 06:53:00
3:13 AM,57.6,57.6,100,30.13,10.0,Calm,Calm,-,N/A,,Overcast,0,2013-09-27 07:13:00
3:33 AM,57.9,57.9,100,30.13,10.0,Calm,Calm,-,N/A,,Mostly Cloudy,0,2013-09-27 07:33:00
3:53 AM,57.7,57.7,100,30.13,10.0,Calm,Calm,-,N/A,,Mostly Cloudy,0,2013-09-27 07:53:00
4:13 AM,58.6,58.6,100,30.13,10.0,Calm,Calm,-,N/A,,Mostly Cloudy,0,2013-09-27 08:13:00
4:33 AM,58.5,58.5,100,30.13,10.0,Calm,Calm,-,N/A,,Mostly Cloudy,0,2013-09-27 08:33:00
4:53 AM,58.1,58.1,100,30.14,10.0,Calm,Calm,-,N/A,,Scattered Clouds,0,2013-09-27 08:53:00
5:13 AM,57.9,57.9,100,30.15,10.0,Calm,Calm,-,N/A,,Mostly Cloudy,0,2013-09-27 09:13:00
5:33 AM,57.6,57.6,100,30.15,10.0,Calm,Calm,-,N/A,,Mostly Cloudy,0,2013-09-27 09:33:00
5:53 AM,57.9,57.9,100,30.16,10.0,Calm,Calm,-,N/A,,Mostly Cloudy,0,2013-09-27 09:53:00
6:13 AM,57.9,57.9,100,30.16,10.0,Calm,Calm,-,N/A,,Mostly Cloudy,0,2013-09-27 10:13:00
6:33 AM,58.1,58.1,100,30.17,10.0,Calm,Calm,-,N/A,,Overcast,0,2013-09-27 10:33:00
6:45 AM,58.3,58.3,100,30.18,10.0,Calm,Calm,-,N/A,,Overcast,0,2013-09-27 10:45:00
6:53 AM,59.0,59.0,100,30.18,10.0,Calm,Calm,-,N/A,,Mostly Cloudy,0,2013-09-27 10:53:00
7:53 AM,59.0,59.0,100,30.20,10.0,Calm,Calm,-,N/A,,Overcast,0,2013-09-27 11:53:00
8:45 AM,62.6,62.6,100,30.21,10.0,East,3.5,-,N/A,,Mostly Cloudy,90,2013-09-27 12:45:00
9:45 AM,66.2,64.4,94,30.23,10.0,SE,5.8,-,N/A,,Scattered Clouds,130,2013-09-27 13:45:00
10:50 AM,69.8,55.4,60,30.24,10.0,East,5.8,-,N/A,,Mostly Cloudy,100,2013-09-27 14:50:00
11:45 AM,68.0,55.4,64,30.24,10.0,East,8.1,-,N/A,,Overcast,80,2013-09-27 15:45:00
12:45 PM,71.6,55.4,57,30.24,10.0,East,4.6,-,N/A,,Overcast,80,2013-09-27 16:45:00
1:55 PM,71.6,55.4,57,30.21,10.0,East,9.2,-,N/A,,Mostly Cloudy,90,2013-09-27 17:55:00
2:58 PM,71.6,53.6,53,30.21,10.0,East,6.9,-,N/A,,Overcast,80,2013-09-27 18:58:00
3:50 PM,73.4,53.6,50,30.20,10.0,Calm,Calm,-,N/A,,Mostly Cloudy,0,2013-09-27 19:50:00
4:52 PM,71.6,53.6,53,30.21,10.0,East,5.8,-,N/A,,Overcast,90,2013-09-27 20:52:00
6:50 PM,66.2,53.6,64,30.22,10.0,Calm,Calm,-,N/A,,Mostly Cloudy,0,2013-09-27 22:50:00
7:46 PM,64.4,55.4,73,30.24,10.0,ESE,3.5,-,N/A,,Mostly Cloudy,120,2013-09-27 23:46:00
8:54 PM,62.6,55.4,77,30.25,10.0,Calm,Calm,-,N/A,,Clear,0,2013-09-28 00:54:00
9:55 PM,60.4,55.8,85,30.27,10.0,Calm,Calm,-,N/A,,Clear,0,2013-09-28 01:55:00
10:15 PM,59.9,55.6,86,30.27,10.0,Calm,Calm,-,N/A,,Clear,0,2013-09-28 02:15:00
10:35 PM,59.2,55.4,87,30.28,10.0,Calm,Calm,-,N/A,,Clear,0,2013-09-28 02:35:00
10:55 PM,59.2,55.6,88,30.28,10.0,Calm,Calm,-,N/A,,Clear,0,2013-09-28 02:55:00
11:15 PM,57.6,54.5,90,30.28,10.0,Calm,Calm,-,N/A,,Clear,0,2013-09-28 03:15:00
11:35 PM,56.3,56.3,100,30.28,10.0,Calm,Calm,-,N/A,,Clear,0,2013-09-28 03:35:00
11:55 PM,55.6,55.6,100,30.28,10.0,Calm,Calm,-,N/A,,Clear,0,2013-09-28 03:55:00